Alexandria, Egypt

10:50 AM EET on July 25, 2017 (GMT +0200)
Alexandria

Weather History for HEAX - October, 2012

Change the Weather History Date:

Sunday, October 28, 2012

  Actual Average Record
Temperature  
Mean Temperature 72 °F -  
Max Temperature 83 °F 72 °F 86 °F (2003)
Min Temperature 60 °F 57 °F 55 °F (2000)
Cooling Degree Days 6    
Growing Degree Days 22 (Base 50)    
Moisture  
Dew Point 61 °F    
Average Humidity 72    
Maximum Humidity 94    
Minimum Humidity 38    
Precipitation  
Precipitation 0.00 in 0.04 in - ()
Sea Level Pressure  
Sea Level Pressure 30.03 in    
Wind  
Wind Speed 2 mph ()    
Max Wind Speed 9 mph    
Max Gust Speed -    
Visibility 6.0 miles    
Events      
Averages and records for this station are not official NWS values.
T = Trace of Precipitation, MM = Missing Value Source: Averaged Metar Reports

Daily Weather History Graph

Daily Weather History Graph

Search for Another Location

Airport or City:

Trip Planner

Search our weather history database for the weather conditions in past years. The results will help you decide how hot, cold, wet, or windy it might be!

Date:

Astronomy

Oct. 28, 2012 Rise Set
Actual Time 6:12 AM EET 5:14 PM EET
Civil Twilight 5:47 AM EET 5:39 PM EET
Nautical Twilight 5:19 AM EET 6:08 PM EET
Astronomical Twilight 4:51 AM EET 6:36 PM EET
Moon 4:20 PM EET (10/28) 4:49 AM EET (10/28)
Length of Visible Light 11h 51m
Length of Day
11h 02m
Waxing Gibbous, 98% of the Moon is Illuminated
Oct 28
Waxing Gibbous
Oct 29
Full
Nov 7
Last Quarter
Nov 14
New
Nov 20
First Quarter

Hourly Weather History & Observations

Time (EET) Temp. Heat Index Dew Point Humidity Pressure Visibility Wind Dir Wind Speed Gust Speed Precip Events Conditions
12:00 AM 66.2 °F - 59.0 °F 78% 30.01 in - East 3.5 mph - N/A   Clear
1:00 AM 64.4 °F - 59.0 °F 83% 30.01 in - Calm Calm - N/A   Clear
2:00 AM 63 °F - 59 °F 83% 30.00 in 6 mi Calm Calm - -  
2:00 AM 62.6 °F - 59.0 °F 88% 30.01 in - Calm Calm - N/A   Clear
3:00 AM 62.6 °F - 59.0 °F 88% 30.01 in - Calm Calm - N/A   Clear
4:00 AM 60.8 °F - 59.0 °F 94% 30.04 in - Calm Calm - N/A   Clear
5:00 AM 60.8 °F - 59.0 °F 94% 30.01 in - Calm Calm - N/A   Clear
6:00 AM 60.8 °F - 59.0 °F 94% 30.04 in - Calm Calm - N/A   Clear
7:00 AM 60.8 °F - 59.0 °F 94% 30.04 in - Calm Calm - N/A   Clear
8:00 AM 70 °F - 64 °F 75% 30.05 in 6 mi East 4.6 mph - -  
8:00 AM 69.8 °F - 64.4 °F 83% 30.04 in - East 4.6 mph - N/A   Clear
9:00 AM 75.2 °F - 62.6 °F 65% 30.06 in - East 4.6 mph - N/A   Clear
10:00 AM 77.0 °F - 62.6 °F 61% 30.04 in - East 4.6 mph - N/A   Clear
11:00 AM 80.6 °F 81.8 °F 62.6 °F 54% 30.04 in - East 2.3 mph - N/A   Clear
12:00 PM 80.6 °F 81.5 °F 60.8 °F 51% 30.04 in - Calm Calm - N/A   Clear
1:00 PM 82.4 °F 82.0 °F 57.2 °F 42% 30.01 in - ENE 4.6 mph - N/A   Clear
2:00 PM 82 °F - 61 °F 38% 30.00 in 6 mi ENE 4.6 mph - -  
2:00 PM 82.4 °F 82.9 °F 60.8 °F 48% 30.01 in - ENE 4.6 mph - N/A   Clear
3:00 PM 80.6 °F 81.5 °F 60.8 °F 51% 29.98 in - ENE 5.8 mph - N/A   Clear
4:00 PM 78.8 °F - 60.8 °F 54% 29.98 in - NE 9.2 mph - N/A   Clear
5:00 PM 77.0 °F - 62.6 °F 61% 29.98 in - NNE 8.1 mph - N/A   Clear
6:00 PM 75.2 °F - 62.6 °F 65% 30.01 in - NNE 6.9 mph - N/A   Clear
7:00 PM 73.4 °F - 64.4 °F 73% 30.01 in - NE 6.9 mph - N/A   Clear
8:00 PM 72 °F - 65 °F 72% 30.06 in 6 mi ENE 4.6 mph - -  
8:00 PM 71.6 °F - 64.4 °F 78% 30.04 in - ENE 4.6 mph - N/A   Clear
9:00 PM 71.6 °F - 64.4 °F 78% 30.06 in - ENE 5.8 mph - N/A   Clear
10:00 PM 71.6 °F - 64.4 °F 78% 30.06 in - ENE 4.6 mph - N/A   Clear
11:00 PM 69.8 °F - 64.4 °F 83% 30.06 in - East 2.3 mph - N/A   Clear